DW2050 Weather Reports


Display with metric or nautical units.
time (UTC)temp
F
wind
direction
speed
MPH
gust
MPH
rain 1hr
in
rain 24hr
in
rain mn
in
humidity
%
barometer
mb
20260507061556 55 0 0.0 3.0 0.00 0.00 0.00 80 1021.7
20260507060055 55 0 0.0 3.0 0.00 0.00 0.00 80 1021.6
20260507054558 55 0 0.0 0.0 0.00 0.00 0.00 79 1021.6
20260507053056 56 0 0.0 1.0 0.00 0.00 0.00 79 1021.6
20260507051552 56 0 0.0 1.0 0.00 0.00 0.00 79 1021.5
20260507050051 56 0 0.0 3.0 0.00 0.00 0.00 78 1021.6
20260507044551 57 0 0.0 5.0 0.00 0.00 0.00 78 1021.6
20260507043049 57 360 0.0 3.0 0.00 0.00 0.00 77 1021.5
20260507041559 57 0 0.0 2.0 0.00 0.00 0.00 77 1021.4
20260507040100 58 352 0.0 3.0 0.00 0.00 0.00 76 1021.2
20260507034557 59 350 1.0 3.0 0.00 0.00 0.00 75 1021.0
20260507033056 60 0 0.0 3.0 0.00 0.00 0.00 75 1020.8
20260507031556 60 5 0.0 2.0 0.00 0.00 0.00 74 1020.6
20260507030057 61 15 0.0 4.0 0.00 0.00 0.00 74 1020.5
20260507024555 62 0 0.0 3.0 0.00 0.00 0.00 73 1020.3
20260507023055 62 0 0.0 1.0 0.00 0.00 0.00 73 1020.1
20260507021555 62 0 0.0 1.0 0.00 0.00 0.00 73 1020.1
20260507020101 63 17 0.0 3.0 0.00 0.00 0.00 70 1020.2
20260507014603 64 355 0.0 4.0 0.00 0.00 0.00 69 1020.4
20260507013053 65 342 1.0 5.0 0.00 0.00 0.00 68 1020.3
20260507011601 66 333 0.0 4.0 0.00 0.00 0.00 69 1020.2
20260507010050 66 11 1.0 5.0 0.00 0.00 0.00 69 1020.1
20260507004553 66 5 1.0 5.0 0.00 0.00 0.00 69 1020.2
20260507003051 67 360 2.0 6.0 0.00 0.00 0.00 68 1020.0
20260507001613 68 355 0.0 3.0 0.00 0.00 0.00 67 1020.0
20260507000100 68 5 0.0 3.0 0.00 0.00 0.00 67 1020.0
20260506234558 68 0 0.0 3.0 0.00 0.00 0.00 67 1019.9
20260506233052 69 0 0.0 3.0 0.00 0.00 0.00 66 1020.0
20260506231554 69 0 0.0 2.0 0.00 0.00 0.00 66 1020.0
20260506230053 68 0 0.0 2.0 0.00 0.00 0.00 67 1020.3
20260506224550 68 144 0.0 6.0 0.00 0.00 0.00 67 1020.3
20260506223048 68 127 1.0 4.0 0.00 0.00 0.00 65 1020.5
20260506221553 69 0 1.0 5.0 0.00 0.00 0.00 64 1020.6
20260506214552 70 249 0.0 4.0 0.00 0.00 0.00 64 1020.5
20260506213101 68 0 1.0 6.0 0.00 0.00 0.00 67 1020.5
20260506211551 67 210 0.0 4.0 0.00 0.00 0.00 69 1020.8
20260506210107 65 0 0.0 2.0 0.00 0.00 0.00 73 1021.1
20260506204553 64 0 0.0 2.0 0.00 0.00 0.00 76 1020.9
20260506203138 63 0 0.0 1.0 0.00 0.00 0.00 76 1020.8
20260506201552 63 0 0.0 3.0 0.00 0.00 0.00 76 1020.9
20260506200055 62 0 0.0 2.0 0.00 0.00 0.00 77 1021.0
20260506194554 62 0 0.0 3.0 0.00 0.00 0.00 78 1021.1
20260506193057 61 257 0.0 5.0 0.00 0.00 0.00 78 1021.3
20260506191604 61 0 0.0 3.0 0.00 0.00 0.00 79 1021.1
20260506190055 61 0 0.0 3.0 0.00 0.00 0.00 78 1021.1
20260506184600 60 0 0.0 2.0 0.00 0.00 0.00 79 1021.0
20260506183059 60 281 1.0 5.0 0.00 0.00 0.00 79 1020.9
20260506181556 60 0 1.0 7.0 0.00 0.00 0.00 80 1021.1
20260506180057 59 122 0.0 4.0 0.00 0.00 0.00 82 1021.0
20260506174608 58 0 1.0 5.0 0.00 0.00 0.00 82 1021.1
20260506173056 58 0 0.0 3.0 0.00 0.00 0.00 83 1021.0
20260506171605 57 0 1.0 3.0 0.00 0.00 0.00 84 1020.8
20260506170054 57 0 0.0 6.0 0.00 0.00 0.00 85 1020.9
20260506164554 57 0 0.0 1.0 0.00 0.00 0.00 86 1021.0
20260506163121 57 0 0.0 3.0 0.00 0.00 0.00 85 1020.8
20260506161553 56 136 0.0 3.0 0.00 0.00 0.00 86 1020.7
20260506160053 56 0 0.0 1.0 0.00 0.00 0.00 87 1020.6
20260506154555 56 0 0.0 0.0 0.00 0.00 0.00 87 1020.4
20260506153117 55 0 0.0 0.0 0.00 0.00 0.00 87 1020.3
20260506151555 55 0 0.0 0.0 0.00 0.00 0.00 87 1020.7
20260506150056 55 0 0.0 0.0 0.00 0.00 0.00 87 1020.9
20260506144555 55 0 0.0 3.0 0.00 0.00 0.00 86 1020.8
20260506143055 56 0 0.0 0.0 0.00 0.00 0.00 87 1020.6
20260506141549 56 0 0.0 1.0 0.00 0.00 0.00 87 1020.2
20260506140057 56 0 0.0 0.0 0.00 0.00 0.00 87 1020.1
20260506134555 56 0 0.0 0.0 0.00 0.00 0.00 87 1020.1
20260506133052 56 0 0.0 0.0 0.00 0.00 0.00 86 1019.9
20260506131607 56 0 0.0 0.0 0.00 0.00 0.00 86 1019.8
20260506130057 56 0 0.0 1.0 0.00 0.00 0.00 86 1019.6
20260506124558 56 0 0.0 1.0 0.00 0.00 0.00 86 1019.6
20260506123112 56 0 0.0 0.0 0.00 0.00 0.00 85 1019.5
20260506121605 56 0 0.0 0.0 0.00 0.00 0.00 85 1019.6
20260506120055 56 0 0.0 1.0 0.00 0.00 0.00 85 1019.4
20260506114547 56 0 0.0 0.0 0.00 0.00 0.00 85 1019.3
20260506113050 57 0 0.0 0.0 0.00 0.00 0.00 85 1019.2
20260506111552 57 0 0.0 1.0 0.00 0.00 0.00 85 1019.1
20260506110101 57 0 0.0 0.0 0.00 0.00 0.00 85 1018.8
20260506104552 57 0 0.0 0.0 0.00 0.00 0.00 85 1018.6
20260506103051 57 0 0.0 1.0 0.00 0.00 0.00 84 1018.3
20260506101603 57 0 0.0 0.0 0.00 0.00 0.00 84 1018.1
20260506100051 57 0 0.0 0.0 0.00 0.00 0.00 84 1018.2
20260506094558 58 0 0.0 1.0 0.00 0.00 0.00 85 1018.1
20260506093059 58 0 0.0 0.0 0.00 0.00 0.00 85 1017.9
20260506091552 58 0 0.0 0.0 0.00 0.00 0.00 85 1017.9
20260506084611 58 0 0.0 0.0 0.00 0.00 0.00 84 1017.7
20260506083100 58 0 0.0 0.0 0.00 0.00 0.00 83 1017.8
20260506081609 58 0 0.0 0.0 0.00 0.00 0.00 83 1017.8
20260506073054 59 0 0.0 0.0 0.00 0.00 0.00 83 1017.5
20260506071557 59 0 0.0 0.0 0.00 0.00 0.00 82 1017.4